GFSFLT1_sfc_wetblb_051.txt.gz
Wetbulb
65.53 64.73 64.16 64.08 64.06 64.06 64.30 64.78 64.96 65.26 66.13 66.04 65.93 65.94 65.77 66.45 66.40 66.22 66.08 66.11 66.50 67.01 66.72 66.37 65.38 66.27 67.04 67.10 66.88 67.73 68.08 67.49 67.55
65.31 64.94 64.33 64.39 64.57 64.69 64.90 65.03 65.03 65.52 66.20 66.70 66.98 66.52 65.96 66.02 66.58 66.51 66.71 67.09 66.56 67.71 67.91 67.90 68.14 66.93 67.05 67.90 68.41 68.23 67.81 68.80 68.04
65.79 65.42 65.27 64.91 64.88 65.03 65.01 65.03 64.97 65.08 65.54 65.93 66.24 66.38 66.40 66.10 66.50 66.86 67.00 66.33 67.26 68.42 68.40 68.44 69.01 68.99 68.66 68.05 68.04 68.47 68.83 67.88 67.49
66.53 66.16 65.95 65.47 65.32 65.60 65.49 65.27 65.04 65.00 65.47 65.99 66.22 65.98 65.62 65.32 66.58 66.40 66.05 66.09 67.42 68.26 68.53 68.12 68.36 68.52 68.73 68.55 68.88 68.97 69.00 68.98 69.07
67.94 67.58 66.90 65.88 65.69 65.91 66.09 65.87 65.87 65.97 65.98 65.40 64.64 64.62 65.31 65.26 65.62 65.32 62.59 64.28 66.08 66.77 66.28 66.43 66.94 66.73 66.67 67.49 67.92 68.20 68.45 68.36 68.45
66.23 65.17 66.22 65.51 65.54 65.91 66.16 66.27 66.18 65.47 65.23 63.73 63.05 63.55 65.17 64.68 64.22 63.24 60.83 62.42 64.56 64.87 64.66 64.95 65.36 66.06 66.53 65.63 65.51 65.70 66.10 66.36 66.33
65.93 64.42 64.46 64.44 64.87 65.41 64.91 64.00 64.14 63.88 66.02 64.55 62.34 63.03 62.41 61.89 61.53 58.55 59.72 61.43 63.06 63.41 63.70 63.78 63.53 63.46 63.32 63.46 63.48 63.34 63.44 63.61 63.62
64.78 65.36 64.03 65.15 62.70 65.47 65.13 65.03 65.85 63.59 62.45 61.72 61.40 60.27 59.90 59.04 58.73 56.39 57.62 59.24 60.64 62.43 62.81 61.53 60.67 60.76 61.06 61.15 60.55 60.45 60.47 60.92 61.35
64.58 64.88 65.61 65.78 65.51 65.68 66.05 64.68 62.27 60.76 59.20 58.32 57.61 56.99 56.31 54.53 55.85 54.16 56.13 57.67 58.85 61.36 59.88 59.07 58.60 58.28 58.49 58.90 58.49 58.53 58.97 59.52 59.70
65.36 65.15 64.99 65.39 65.61 65.09 63.21 61.59 59.74 58.50 57.73 56.35 53.78 52.96 52.33 51.92 53.98 54.08 56.25 57.51 58.16 57.27 57.03 56.08 55.67 55.68 55.74 56.14 56.06 56.28 56.71 56.76 56.99
65.50 65.01 65.30 64.38 62.82 59.55 57.81 58.01 57.01 55.84 53.36 52.22 51.87 51.37 51.93 50.92 51.35 53.14 52.13 53.85 53.62 53.76 53.34 52.91 52.74 53.08 53.63 54.21 54.38 54.87 55.21 55.15 54.84
66.06 64.72 62.41 60.86 59.28 57.26 56.93 55.35 53.68 52.32 51.61 51.26 50.92 50.17 49.42 50.20 49.69 51.74 51.50 50.00 49.61 49.19 49.73 50.00 50.16 50.91 52.10 52.98 53.51 53.82 53.97 53.40 53.52
63.88 60.72 59.95 57.94 57.07 55.76 54.15 52.70 51.54 50.73 49.86 49.27 50.06 49.48 49.19 49.31 49.08 50.11 49.35 49.92 48.44 47.61 46.18 46.07 47.19 47.35 49.29 51.22 51.98 52.02 51.83 51.82 52.48
61.04 58.90 55.61 56.19 54.65 53.18 51.56 50.55 49.41 48.67 48.29 48.09 48.16 49.49 49.12 48.58 48.06 48.09 47.36 47.19 47.81 46.91 46.15 44.97 45.66 45.23 46.29 48.47 50.08 50.39 50.72 50.92 51.00
57.15 55.02 54.44 53.68 51.96 50.63 50.15 49.20 48.03 46.65 46.01 45.77 46.56 48.13 48.90 49.16 48.94 47.28 46.62 46.51 46.05 46.07 45.73 44.75 44.63 45.47 45.22 46.96 47.26 48.37 49.66 49.43 49.74
52.97 50.96 50.99 50.70 49.28 49.33 48.78 47.48 46.67 45.30 45.14 46.13 47.50 47.54 46.84 47.60 47.67 47.62 46.40 46.27 45.31 44.54 44.01 43.25 42.92 42.81 44.98 45.33 45.62 47.11 47.51 48.46 48.90
49.09 48.95 49.13 47.56 47.77 46.88 46.53 46.57 45.30 44.44 44.34 42.36 44.57 43.86 44.02 45.88 46.71 47.01 45.29 44.41 44.62 43.29 42.71 42.10 41.91 41.99 41.92 42.90 44.27 44.62 45.68 47.08 48.02
49.32 47.27 45.60 46.57 47.32 45.79 45.44 45.22 45.33 43.66 43.72 42.96 41.34 40.66 40.60 39.67 44.80 44.07 44.27 43.29 43.54 42.35 42.31 41.81 41.56 41.33 41.06 42.07 42.09 42.71 43.30 44.95 47.35
46.75 46.38 45.70 44.04 45.69 44.69 44.20 44.03 43.79 44.26 41.20 43.16 41.33 41.42 39.53 36.61 36.00 42.81 42.45 42.89 40.56 41.80 41.70 41.12 40.82 40.88 40.89 41.70 42.01 42.31 42.42 44.27 46.63
44.17 43.92 44.02 42.91 44.35 43.87 43.45 42.89 42.03 41.58 41.43 40.41 39.52 39.42 39.60 39.23 35.97 34.09 38.00 40.09 41.30 41.20 41.10 40.44 40.52 40.32 40.39 39.84 40.16 41.50 42.28 44.00 45.43

GFSFLT1_sfc_wetblb_054.txt.gz
Wetbulb
65.51 64.69 64.44 64.52 65.01 65.27 65.71 65.85 65.73 66.46 66.73 66.65 66.56 66.57 66.70 67.64 65.09 63.70 64.24 64.04 67.21 67.79 67.50 67.35 66.81 65.83 66.28 66.85 67.82 67.62 67.88 68.20 67.64
65.28 64.72 64.77 64.81 64.92 65.25 65.54 65.64 65.63 66.41 66.58 66.70 66.57 66.16 66.57 63.98 62.59 63.53 63.91 64.66 67.72 68.23 67.91 68.13 68.63 68.54 67.75 67.33 67.72 68.29 68.80 67.78 67.84
65.72 65.30 65.11 65.24 65.44 65.62 65.72 65.54 65.40 65.44 65.71 66.10 66.22 66.12 66.30 64.09 64.43 63.62 63.77 67.05 67.99 68.54 68.38 68.60 68.88 69.01 68.93 69.06 68.75 68.39 68.54 69.07 68.85
66.34 66.01 65.92 65.81 66.06 66.11 65.83 65.57 65.31 65.44 65.89 66.11 66.00 66.24 65.83 63.10 64.44 63.45 62.57 66.72 67.32 67.76 67.03 67.38 67.68 67.50 67.68 68.23 68.47 68.81 68.91 68.88 68.72
67.29 67.50 67.06 66.25 66.26 66.47 66.45 66.17 66.09 66.12 66.07 65.48 65.18 65.36 65.04 62.49 62.52 60.22 61.20 64.78 65.94 65.71 65.67 65.86 66.46 67.41 66.79 66.39 66.41 66.66 66.92 66.90 66.79
65.78 65.70 66.49 67.06 66.43 66.50 66.63 66.68 66.68 66.84 66.18 65.40 64.91 64.17 60.88 58.49 57.93 56.58 62.25 63.08 64.37 64.94 64.74 65.55 64.71 64.51 64.34 64.53 64.22 63.89 64.02 64.23 64.35
64.54 63.72 65.39 66.61 66.65 66.65 66.08 65.34 65.69 64.98 63.58 61.94 62.82 58.22 56.03 56.28 55.15 55.59 59.86 60.68 61.28 63.81 64.05 62.85 62.14 62.20 62.53 62.04 61.58 61.48 61.49 61.89 62.15
62.24 61.01 61.34 61.16 62.65 62.86 64.54 63.09 62.69 58.61 56.91 56.16 55.44 54.00 52.39 50.99 52.68 55.94 59.00 61.25 62.73 63.41 61.52 60.73 60.01 59.95 59.93 59.82 59.69 59.54 60.03 60.38 60.44
59.98 61.98 61.00 61.89 60.74 62.47 62.14 61.31 57.69 56.57 55.00 52.82 51.34 50.12 49.02 47.54 50.68 53.87 58.32 58.47 61.52 60.46 59.47 58.26 57.80 57.41 57.22 57.25 57.18 57.29 57.53 57.69 57.60
60.40 60.86 61.24 61.25 61.48 61.10 59.17 56.75 55.43 53.22 52.23 50.39 48.39 47.84 46.61 46.47 48.23 51.03 58.30 58.56 57.87 57.38 56.37 55.77 55.30 55.02 54.97 55.03 55.19 55.59 55.87 56.19 55.99
61.18 60.69 60.96 58.90 56.52 54.59 53.08 53.16 51.91 49.66 47.32 46.96 46.66 45.67 45.69 45.92 45.97 48.74 51.72 54.95 54.50 53.82 53.62 53.19 52.99 53.11 53.70 54.09 54.35 54.45 54.84 54.78 54.65
61.61 60.66 58.70 56.40 54.85 53.60 52.46 50.58 48.32 46.99 47.00 45.32 45.63 44.45 43.25 43.91 44.94 46.70 47.38 48.67 51.36 49.81 49.56 49.64 50.16 50.33 51.80 53.21 53.52 53.41 53.31 53.35 53.27
59.00 57.91 55.56 54.47 53.23 50.85 48.93 47.61 46.11 44.67 43.93 42.87 43.53 43.08 43.80 43.27 43.72 45.21 43.98 44.68 45.21 47.11 46.66 46.83 48.11 47.79 49.38 50.93 52.13 52.35 51.97 52.26 52.30
58.13 53.36 52.16 52.54 50.59 49.55 47.56 44.55 43.45 42.30 42.04 42.72 41.47 42.12 42.56 42.81 44.73 42.31 42.46 42.27 42.55 41.74 46.22 46.66 46.76 46.91 47.91 49.13 50.61 50.46 50.81 51.03 51.24
54.76 52.27 51.31 49.48 47.67 46.39 46.62 43.37 42.58 40.79 39.84 42.99 42.96 41.40 42.80 41.99 42.11 42.13 43.73 41.80 41.48 40.31 40.05 38.56 39.53 45.71 46.85 48.06 48.62 48.83 49.90 49.66 50.21
49.98 48.26 47.32 47.11 45.83 45.14 44.31 43.52 42.30 39.37 39.18 38.81 39.64 40.07 41.83 41.63 41.98 42.51 40.94 40.90 40.51 39.00 38.18 37.55 37.13 37.68 44.58 45.30 46.27 47.51 47.90 48.52 49.18
46.83 46.02 45.78 45.20 44.89 44.06 43.44 43.27 40.80 39.42 38.69 36.06 38.52 36.64 38.53 40.88 41.47 41.30 40.37 38.50 38.60 38.27 38.39 36.79 36.80 35.86 35.95 39.04 44.82 45.14 46.16 47.59 48.27
48.27 46.43 46.58 46.20 45.90 43.68 42.71 42.12 41.61 38.63 38.17 36.87 35.82 33.54 32.97 33.29 37.98 39.00 38.72 36.94 36.40 36.01 36.87 37.59 37.28 36.35 35.45 38.80 39.50 42.99 44.34 46.00 47.58
47.23 47.07 46.81 45.55 44.21 42.38 41.81 41.69 40.12 40.81 37.94 38.54 38.76 35.46 33.91 30.41 29.32 35.03 35.75 35.87 36.23 35.16 35.20 35.77 36.07 36.37 35.65 39.51 41.79 42.57 43.34 44.93 47.08
45.93 44.57 43.68 43.64 43.07 41.02 40.46 38.50 37.56 37.16 36.87 35.64 35.05 34.03 34.01 33.07 29.84 28.23 30.85 33.61 34.88 35.36 35.06 34.38 34.58 35.79 35.74 35.22 37.78 41.72 42.89 44.62 46.01

GFSFLT1_sfc_wetblb_057.txt.gz
Wetbulb
65.69 65.07 65.06 66.03 66.49 66.96 67.00 66.75 66.98 66.91 66.91 66.99 66.99 66.70 66.51 66.87 63.91 63.83 65.49 63.63 67.73 67.89 67.42 67.14 67.43 66.91 65.61 66.14 67.11 67.69 68.38 67.40 67.98
65.15 64.96 64.96 65.36 65.86 66.19 66.24 66.17 66.68 67.02 67.15 67.07 66.34 65.98 66.35 62.99 62.95 63.15 63.55 64.70 68.05 68.07 67.86 68.84 69.18 68.76 68.69 68.12 67.39 67.65 68.07 68.68 67.76
65.39 65.42 65.47 65.64 65.86 66.05 66.06 65.93 66.06 66.11 66.22 66.25 65.97 65.86 66.10 63.62 63.90 63.14 64.28 67.94 68.30 68.50 67.83 67.80 68.09 67.84 68.31 69.13 69.14 69.04 68.83 68.72 68.90
66.04 65.73 65.93 66.20 66.38 66.23 66.07 65.99 65.90 66.08 66.24 66.16 65.79 66.37 65.65 62.28 63.23 62.45 63.01 67.38 67.13 66.44 67.03 66.93 67.20 68.25 67.50 67.19 67.30 67.57 67.48 67.43 67.58
66.86 67.06 66.94 66.46 66.51 66.48 66.52 66.33 66.33 66.46 66.38 65.91 66.05 65.28 64.73 61.65 59.22 59.14 60.79 65.36 65.34 65.63 65.64 66.78 66.04 65.84 65.92 65.59 64.69 64.59 64.64 64.82 65.10
65.61 65.35 66.58 67.30 66.81 66.91 66.85 67.02 67.03 67.13 66.32 65.96 65.36 63.85 58.76 56.51 55.75 57.18 63.45 63.74 64.33 65.01 65.57 64.62 63.93 63.70 63.79 63.01 62.62 62.42 62.63 62.86 63.21
65.07 64.29 66.02 67.10 67.14 67.26 67.07 66.79 66.62 65.28 62.54 61.34 62.57 55.10 52.38 53.89 53.59 55.41 62.03 61.10 62.85 64.68 62.96 62.26 62.06 61.79 61.26 61.08 60.81 60.91 61.34 61.43 61.20
61.49 61.51 62.68 62.68 63.56 63.66 64.96 63.38 62.06 58.16 59.05 56.72 51.67 50.51 48.48 51.22 52.61 56.75 60.86 62.27 63.30 62.31 61.02 60.17 59.50 59.07 58.83 58.71 58.56 58.48 58.56 58.62 58.42
59.92 59.30 59.36 59.48 60.04 60.42 60.76 60.64 56.37 54.16 52.35 50.46 48.89 47.39 45.43 48.17 49.40 54.97 60.95 61.52 62.10 60.46 58.55 57.91 57.22 56.92 56.60 56.64 56.36 56.58 56.73 56.82 56.88
59.26 59.68 59.32 59.45 59.39 59.70 57.34 54.59 52.99 50.47 47.32 46.82 46.29 45.98 44.24 46.90 49.40 52.61 59.52 59.39 58.72 57.26 56.33 55.89 55.47 55.25 55.23 55.39 55.39 55.52 55.78 55.70 55.61
58.81 59.63 59.64 58.96 55.38 53.59 53.01 51.45 49.85 46.52 45.98 45.28 44.35 43.22 43.48 44.44 48.19 50.00 52.47 56.74 55.38 54.39 53.48 52.87 52.65 53.06 54.05 54.79 54.77 54.62 54.40 54.61 54.52
59.70 59.05 55.97 54.38 52.59 51.61 49.75 47.51 46.30 45.23 44.94 43.04 43.46 42.49 41.52 42.39 44.74 47.74 46.95 48.66 52.01 50.79 50.20 50.24 50.75 50.63 51.92 53.07 53.63 53.88 53.55 53.56 53.76
59.26 57.10 53.98 52.16 51.62 49.68 47.08 45.85 44.19 42.67 41.83 40.97 41.26 41.30 42.18 41.33 42.40 44.85 44.03 43.37 44.27 46.81 47.61 47.87 48.71 49.00 50.47 51.04 52.59 52.39 51.96 52.37 52.29
57.63 54.05 51.73 50.48 48.22 46.59 45.77 42.76 42.43 40.49 39.71 41.03 39.92 40.45 41.60 41.51 43.27 40.27 40.18 41.35 41.32 40.65 45.38 47.02 46.42 47.11 48.59 50.05 51.25 50.62 50.81 51.02 51.10
53.41 51.65 49.94 48.06 45.73 45.05 43.67 41.66 40.28 39.23 38.23 41.55 41.62 40.33 41.17 40.71 40.12 39.91 41.93 40.41 40.05 39.62 38.99 37.49 38.25 45.04 45.89 47.02 48.37 49.35 49.96 49.75 50.06
52.36 49.63 47.24 46.03 44.85 43.60 42.91 41.52 40.26 38.24 38.57 37.83 39.83 39.81 39.94 39.74 40.02 40.43 39.26 40.23 39.93 38.17 36.63 35.80 35.54 36.37 43.23 43.84 46.16 47.47 47.95 48.61 49.25
48.82 46.90 45.51 43.85 42.73 42.19 41.53 41.23 39.42 39.48 39.30 37.87 38.54 36.89 37.80 38.89 40.13 39.34 39.63 37.31 37.49 37.29 37.04 35.54 35.59 34.64 34.61 37.66 44.54 44.42 45.64 47.60 48.82
48.03 45.12 45.11 43.89 44.25 43.13 42.36 42.15 40.82 39.23 38.13 36.59 36.43 33.58 34.75 33.72 37.78 38.76 37.61 35.93 35.57 34.90 35.32 36.40 36.02 35.06 34.12 37.71 38.83 42.88 44.29 46.39 48.24
47.32 46.24 45.47 45.29 46.06 44.75 41.50 42.00 39.97 40.30 37.31 36.98 37.92 35.00 32.99 29.93 29.68 34.32 35.37 34.78 35.57 34.21 34.07 34.35 34.51 34.83 34.50 38.26 41.69 43.48 43.60 45.11 47.27
48.66 47.37 45.43 44.70 44.75 42.34 40.21 40.03 38.94 38.91 37.41 36.42 34.63 33.24 32.58 31.33 29.88 28.20 30.84 32.66 33.14 33.47 32.83 32.73 32.54 33.71 33.88 33.46 36.58 42.48 43.44 45.00 46.41

GFSFLT1_sfc_wetblb_060.txt.gz
Wetbulb
66.58 66.63 67.32 67.53 68.05 67.84 67.57 67.25 67.13 66.87 66.74 66.60 66.78 66.64 66.07 64.73 61.65 61.43 64.28 63.28 67.27 67.13 66.50 66.66 67.38 67.45 66.01 65.72 66.35 67.56 68.10 67.88 67.24
65.54 65.36 66.17 66.46 66.99 67.11 66.97 67.10 67.12 67.30 67.30 66.91 66.24 65.63 65.93 62.12 61.54 62.73 63.11 64.31 68.28 68.62 69.08 68.86 69.11 69.12 69.35 68.59 67.88 67.72 67.69 68.08 68.64
65.28 65.11 65.47 66.07 66.52 66.58 66.48 66.50 66.53 66.40 66.33 65.93 65.56 66.02 65.79 63.12 63.98 63.15 64.45 67.92 68.14 67.57 68.05 67.85 68.13 68.55 68.42 68.05 68.27 68.39 68.88 68.60 68.73
65.71 65.67 65.84 66.03 66.16 66.18 66.07 65.99 66.12 66.18 66.23 65.88 65.53 65.78 65.39 60.74 61.81 62.80 62.55 67.50 66.77 66.61 66.59 67.23 67.52 67.16 66.67 66.04 65.74 65.79 65.73 66.02 66.14
66.30 66.73 66.89 66.59 66.48 66.30 66.19 66.14 66.18 66.40 66.11 65.59 65.73 64.79 63.31 58.00 57.42 58.51 60.96 65.82 65.67 66.26 66.98 66.03 65.75 65.10 64.29 64.26 63.88 63.90 64.15 64.06 64.59
64.84 65.01 66.48 67.30 66.74 66.79 66.77 66.70 66.69 66.93 66.27 65.85 64.74 60.56 56.75 54.99 55.90 56.97 64.08 64.05 65.75 65.95 64.94 63.75 63.94 63.35 62.74 62.39 62.08 62.45 62.67 62.58 62.36
64.64 63.63 65.94 67.18 67.32 67.60 67.26 67.28 67.32 65.68 61.98 60.46 58.74 51.84 53.69 53.10 53.52 55.87 63.55 61.95 65.10 63.99 62.62 61.96 61.46 61.06 60.53 60.04 59.97 60.26 60.16 59.90 59.50
62.54 61.91 63.18 62.94 63.72 63.59 65.28 63.77 61.71 59.70 59.69 53.05 49.52 48.19 50.83 51.10 52.07 57.49 62.91 62.92 64.12 61.85 60.32 59.53 58.85 58.36 58.12 57.84 57.74 57.79 57.76 57.93 57.81
60.01 60.29 60.34 60.46 61.34 60.53 60.53 59.60 57.39 51.79 50.87 48.28 46.50 44.71 47.12 48.60 50.06 56.47 61.08 63.56 62.03 59.90 58.32 57.37 56.91 56.43 56.20 56.02 56.03 56.34 56.41 56.42 56.36
59.95 58.79 58.59 58.79 58.78 58.85 59.16 58.08 51.30 46.90 45.70 45.21 45.24 44.13 44.53 47.33 51.15 53.76 60.31 60.78 59.08 57.50 56.46 55.74 54.94 54.74 55.16 55.25 55.20 55.15 55.13 55.29 55.27
59.94 58.50 58.30 57.89 58.66 58.22 54.99 51.24 48.03 45.33 44.77 43.63 42.84 42.23 43.50 47.29 50.03 50.52 53.92 57.81 56.14 54.79 53.36 52.84 52.57 52.65 53.34 54.10 54.13 54.25 54.31 54.33 54.39
59.42 58.44 58.06 56.55 53.28 51.93 48.43 46.16 45.06 44.12 43.93 41.67 41.53 41.00 40.08 43.52 47.35 47.93 47.53 49.18 53.51 51.58 50.69 50.45 50.74 50.68 51.93 52.46 53.50 53.17 52.80 52.94 52.92
58.12 57.62 55.13 52.44 50.66 48.78 46.10 44.83 43.03 41.80 40.94 39.81 40.18 40.50 40.88 39.94 45.14 45.09 43.66 43.02 44.11 47.49 48.10 48.01 48.44 49.22 50.62 51.93 52.67 51.83 51.39 51.78 51.69
58.36 56.29 52.32 50.89 48.42 46.24 45.48 42.63 42.16 39.86 39.05 39.87 38.90 39.50 40.44 40.66 42.90 42.05 40.92 41.32 41.19 39.45 46.56 46.54 46.24 46.77 48.19 49.30 50.30 51.01 50.65 50.78 50.67
55.93 52.83 50.90 48.52 46.21 43.93 42.77 41.27 39.49 38.54 37.41 40.82 40.45 39.37 40.87 39.47 39.09 39.77 40.50 39.82 39.29 38.10 37.41 36.53 37.91 44.91 45.69 46.49 47.74 49.23 49.63 49.34 49.78
53.44 51.26 47.69 45.97 46.15 43.64 42.03 40.64 38.92 37.17 36.76 37.25 37.97 41.45 40.13 40.06 41.18 40.94 38.77 39.35 38.83 36.59 35.54 35.08 34.78 35.64 43.63 44.00 45.81 47.01 47.68 48.24 49.02
52.24 49.45 46.48 45.25 43.67 42.10 41.27 40.60 38.89 39.54 38.18 36.13 37.12 37.85 39.19 39.73 38.86 38.87 39.12 37.17 36.98 37.12 36.28 34.46 34.56 33.78 33.67 37.13 45.04 44.97 46.04 47.31 48.77
50.44 47.92 45.93 44.11 46.12 41.59 41.11 41.92 42.59 38.77 38.18 37.12 37.19 34.27 34.66 33.60 36.12 36.10 35.35 34.28 34.02 33.56 34.29 34.79 34.43 33.94 32.99 36.42 37.63 43.25 44.76 46.49 48.33
49.86 46.77 45.36 45.70 44.83 43.14 45.42 44.30 41.37 39.48 37.96 38.10 37.34 36.28 34.91 32.43 31.35 34.65 35.23 34.65 34.86 32.88 32.76 32.80 32.95 32.80 32.93 36.74 40.14 43.13 44.11 45.87 47.83
49.71 48.54 46.38 46.95 45.81 44.52 43.74 42.77 40.35 39.78 37.80 37.95 33.87 32.31 32.10 31.64 30.39 28.81 31.00 32.95 33.11 33.31 32.88 32.16 31.29 31.77 31.92 32.87 37.52 42.10 43.40 45.32 46.72

GFSFLT1_sfc_wetblb_063.txt.gz
Wetbulb
67.41 67.65 68.81 68.94 68.83 68.91 68.34 67.51 66.91 66.56 66.17 66.50 67.12 66.27 65.66 63.97 61.45 58.99 61.97 63.09 67.17 67.26 67.59 69.38 67.65 67.74 67.25 65.59 66.03 67.28 67.88 68.12 67.30
66.55 67.12 67.36 67.95 67.96 67.65 67.62 67.60 67.23 66.98 67.01 66.94 66.21 65.71 65.32 61.19 61.15 62.12 62.42 63.86 69.14 69.04 69.06 68.55 68.38 68.91 69.20 68.46 68.53 68.41 67.65 68.18 68.64
65.75 66.24 66.77 66.83 67.38 67.29 67.09 67.26 67.11 66.59 66.44 66.20 66.05 65.78 64.71 63.31 62.47 62.88 63.07 67.92 67.95 68.57 67.93 68.37 68.34 68.06 67.75 67.16 67.17 66.99 67.76 67.85 67.53
65.56 65.42 65.92 66.43 66.83 66.80 66.58 66.31 66.19 66.20 66.01 66.00 65.67 65.50 64.72 60.78 60.13 61.82 61.80 67.54 67.11 67.08 67.77 67.23 66.96 66.53 65.54 64.60 65.02 65.16 65.18 65.65 66.11
66.27 66.52 66.74 66.30 66.30 66.21 66.06 66.05 66.15 66.34 66.09 65.72 65.00 64.11 62.87 56.78 57.53 58.77 61.18 66.27 66.93 67.36 66.46 65.50 65.50 64.48 63.51 63.31 63.48 63.83 63.99 63.36 63.15
64.15 64.70 66.40 67.28 66.62 66.37 66.29 66.31 66.58 66.88 65.73 65.21 61.71 60.61 56.38 55.04 55.68 56.57 64.25 65.43 66.30 65.66 64.37 64.27 63.04 62.37 62.01 61.58 61.82 61.67 61.41 61.12 60.69
63.70 63.23 65.78 67.09 67.19 67.33 66.88 66.90 67.26 64.92 60.84 58.09 55.20 54.24 52.79 52.62 53.67 55.89 64.24 64.00 65.31 63.90 62.32 61.73 61.25 60.48 59.75 59.46 59.29 59.24 59.20 59.29 58.83
61.89 61.05 62.53 62.56 63.70 63.26 64.95 63.61 61.45 59.34 59.09 50.17 48.04 51.01 50.24 50.57 51.45 57.05 63.83 64.35 63.61 61.82 60.15 59.27 58.64 58.18 57.72 57.53 57.60 57.48 57.50 57.50 57.35
60.12 60.10 60.51 60.61 60.99 60.27 60.33 59.36 56.27 50.92 50.06 46.82 44.81 47.04 48.09 47.89 50.47 56.06 61.83 63.65 62.07 59.91 58.43 57.72 56.98 56.65 56.55 56.52 56.41 56.37 56.45 56.47 56.29
59.72 59.32 59.20 59.01 59.11 59.13 58.68 57.91 49.86 46.26 44.92 44.52 44.38 43.43 45.94 47.87 52.35 54.56 61.16 61.42 59.42 57.99 56.99 55.68 55.14 55.22 55.42 55.60 55.28 55.31 55.55 55.57 55.53
60.14 58.75 58.37 57.79 57.96 58.20 58.19 54.11 46.66 44.32 43.46 42.42 42.38 41.85 45.52 48.22 50.69 51.40 54.74 59.05 56.92 55.25 54.20 53.57 53.29 53.20 53.65 53.89 54.32 54.24 54.10 54.18 54.13
60.29 58.69 57.35 57.34 57.65 56.50 50.47 46.00 44.22 43.14 42.87 41.33 40.82 40.14 41.04 46.80 48.17 48.52 47.78 48.65 54.57 52.68 51.87 51.50 51.53 51.93 52.48 53.33 53.75 52.74 52.44 52.91 52.91
58.33 57.77 57.42 56.13 52.92 50.03 46.02 44.31 42.56 41.60 41.29 39.54 39.48 39.76 39.71 41.73 45.48 45.44 43.73 43.04 43.66 47.72 49.21 48.70 48.81 49.22 50.23 51.15 52.08 52.44 51.87 51.72 51.55
58.31 57.46 55.43 51.82 49.05 46.52 45.62 42.71 42.23 40.43 39.03 39.45 38.40 38.84 39.26 40.84 45.12 42.22 41.37 41.71 40.35 39.12 47.30 46.84 46.36 46.90 48.11 49.16 49.78 50.40 50.71 50.80 50.79
58.47 55.23 52.79 49.88 46.79 44.58 43.48 41.57 39.07 38.85 37.52 40.56 39.53 38.45 39.40 38.82 40.42 40.83 40.76 41.14 40.16 38.99 37.53 35.38 36.76 45.45 46.10 46.69 47.68 49.00 49.27 49.41 49.86
56.97 53.62 50.21 48.14 47.44 45.30 42.82 40.10 38.53 36.75 36.81 37.71 39.04 38.22 38.85 37.93 38.32 38.68 38.75 40.01 38.32 36.33 35.38 34.53 34.10 34.87 43.23 44.61 45.83 47.36 47.84 48.56 49.09
55.52 52.47 49.86 48.23 44.78 42.18 41.21 40.67 38.27 37.12 36.24 36.48 36.46 35.49 37.85 38.07 38.00 38.10 38.51 36.56 36.54 35.67 35.45 34.02 33.97 33.38 33.34 36.60 44.32 45.07 46.57 47.95 48.98
56.40 52.70 49.95 47.13 46.42 44.02 42.48 41.37 40.71 37.89 38.40 37.32 37.75 34.04 33.75 33.22 34.53 34.98 34.80 34.38 33.69 33.87 34.02 34.00 33.51 32.58 32.06 34.98 37.36 43.45 45.05 46.84 48.67
53.37 50.89 49.13 47.12 46.44 45.06 47.40 46.87 43.57 42.23 39.80 39.00 38.58 35.28 34.34 31.91 29.58 32.46 32.61 32.65 33.53 32.19 32.96 32.46 32.80 32.48 33.15 36.90 40.44 42.77 43.70 46.01 48.05
51.97 49.47 47.99 48.87 49.63 49.37 48.79 47.34 43.31 42.03 40.62 37.87 34.42 33.48 33.19 30.48 29.35 28.22 29.49 31.75 32.30 32.30 31.83 31.43 31.01 31.60 31.90 32.48 36.46 41.23 42.86 45.00 46.36

GFSFLT1_sfc_wetblb_069.txt.gz
Wetbulb
68.68 70.83 71.10 70.79 70.70 70.53 69.60 68.41 66.99 66.64 67.43 68.06 67.48 67.05 66.28 64.26 65.18 66.36 66.68 67.42 68.38 69.40 69.89 69.07 69.54 69.59 68.56 69.03 67.96 66.75 68.44 69.15 69.34
68.77 69.74 70.08 70.05 69.81 69.36 68.69 68.32 67.51 66.96 67.82 67.27 67.01 66.40 65.05 65.44 66.44 67.06 66.75 68.52 68.98 69.36 69.53 69.05 68.60 67.79 67.62 67.81 68.56 68.92 68.76 68.60 68.53
67.81 68.81 68.77 68.75 68.82 68.81 68.53 68.12 67.58 67.44 67.19 66.96 66.58 66.02 65.15 65.78 66.30 66.97 67.62 68.85 68.06 69.02 68.50 67.51 66.90 66.23 66.09 65.84 65.82 66.11 66.05 66.07 66.21
67.71 67.91 68.39 68.52 68.23 67.99 67.90 67.72 66.89 67.04 66.69 66.57 66.12 65.89 63.79 65.25 65.68 65.50 66.89 68.18 68.22 67.81 67.25 66.18 65.21 64.86 64.87 64.90 64.46 64.20 63.97 63.85 64.01
67.30 67.73 67.88 67.77 67.76 67.36 67.29 66.68 66.81 67.01 66.54 65.72 65.41 64.52 61.97 63.82 64.19 65.51 66.75 67.72 67.13 66.32 65.66 64.65 64.24 63.72 63.61 63.21 62.74 62.22 61.88 61.64 61.70
65.32 65.13 66.45 67.58 67.67 66.68 66.42 66.66 67.31 66.19 64.26 63.55 63.74 61.00 62.15 61.85 61.97 63.81 66.35 66.43 65.39 64.47 64.14 63.65 62.72 61.96 61.31 61.06 60.90 60.89 60.57 60.25 60.20
64.96 64.21 65.89 67.20 67.02 67.12 66.84 67.14 65.94 64.12 61.95 61.68 60.30 61.16 59.78 59.79 61.27 63.06 65.15 65.56 64.49 63.09 62.17 61.50 60.72 60.11 59.91 59.88 59.76 59.63 59.49 59.12 59.21
65.00 65.19 66.11 66.70 64.77 66.57 66.87 66.79 65.58 63.88 59.39 58.79 59.58 58.39 58.25 58.34 60.45 60.52 66.09 64.55 63.33 61.32 60.38 59.63 58.92 58.86 58.79 58.85 58.48 58.31 58.23 58.17 58.05
64.12 64.19 65.38 65.82 66.19 66.04 66.21 65.15 61.45 63.16 56.07 57.06 57.15 56.39 56.16 56.42 58.07 60.47 64.26 63.74 61.80 60.40 59.31 58.21 57.98 57.88 57.91 57.42 57.27 57.38 57.31 56.99 56.69
63.90 63.65 64.20 64.69 65.04 64.96 64.55 62.28 57.69 58.26 53.91 52.64 54.24 53.79 53.98 56.79 61.15 63.09 61.69 62.35 60.12 59.37 57.84 56.99 56.54 56.51 56.21 56.24 56.12 55.88 55.78 55.70 55.74
63.48 63.16 63.11 63.62 63.98 63.88 63.62 60.19 54.96 53.83 52.05 50.70 50.44 52.33 53.81 56.79 59.26 60.50 60.37 60.24 58.58 57.00 56.25 55.57 54.96 54.98 55.16 55.38 54.82 54.19 54.15 54.08 54.15
63.41 63.14 62.75 63.18 62.97 62.70 62.28 55.29 52.11 50.58 49.30 49.09 49.19 51.30 52.93 55.23 56.67 56.94 57.33 56.87 56.87 55.83 54.63 54.26 53.01 53.06 53.60 53.48 53.72 53.44 52.74 52.52 52.56
63.79 63.26 62.86 63.22 62.13 61.71 59.96 54.59 50.78 50.16 49.64 48.16 47.57 48.08 50.75 52.95 54.34 54.02 52.81 52.35 52.02 52.92 52.19 51.29 50.52 50.69 51.40 51.70 51.73 51.57 51.73 51.80 51.74
63.89 63.39 63.57 62.76 61.55 59.99 57.23 52.46 51.60 49.34 48.24 47.39 46.86 46.92 47.13 50.45 51.49 52.03 49.95 50.04 49.42 49.95 50.09 49.25 48.42 48.22 48.66 49.45 50.07 50.46 50.41 50.54 50.81
63.14 62.93 63.10 62.20 60.29 58.34 54.42 51.98 48.61 49.38 48.21 44.70 45.04 46.49 46.98 48.06 50.44 50.31 48.23 48.53 46.65 47.65 46.60 44.86 45.18 46.26 47.04 47.79 48.49 49.24 49.84 50.10 50.25
62.77 62.39 61.93 60.99 59.73 57.64 55.00 50.21 47.61 45.19 45.62 45.32 45.25 45.69 46.02 45.55 47.63 48.54 47.43 46.63 45.29 44.20 43.54 43.80 43.73 43.33 43.22 44.00 46.28 47.55 47.92 48.73 49.70
62.69 62.24 61.18 59.73 58.44 56.33 52.13 48.47 45.06 44.40 44.50 45.37 45.24 44.02 43.93 44.54 43.96 44.10 45.05 45.15 43.99 42.47 41.73 41.67 41.49 41.99 42.21 44.15 44.44 45.56 47.35 48.68 49.69
62.02 61.83 61.04 58.97 57.84 54.66 51.88 49.57 49.23 45.10 43.08 44.15 47.10 41.09 42.74 40.58 40.84 42.51 43.47 43.15 42.53 41.96 40.95 40.13 39.89 40.14 41.93 41.61 42.47 43.52 44.32 46.28 48.33
61.43 60.91 60.48 58.77 57.03 54.98 52.19 49.67 50.50 49.40 45.31 43.26 41.90 43.18 43.82 39.39 37.66 37.65 40.12 40.83 39.35 40.34 39.67 39.71 38.66 39.05 39.94 39.52 40.51 41.92 42.92 45.18 47.45
61.17 60.42 59.53 57.91 56.15 55.12 51.55 49.16 49.99 51.46 48.61 46.98 41.96 40.18 38.77 37.11 36.50 37.74 35.26 37.04 36.69 39.36 39.39 38.74 38.13 37.89 38.43 39.13 39.70 40.73 42.35 44.42 45.91